STARLINK-1194 (45101 NORAD) Tracking and Keplerian Element Data

This shows tracking and keplerian element data for the satellite.

Feedback or suggestion? Click here.




ElementValue
Catalog45101
NameSTARLINK-1194
Epoch Orbit177
Epoch Day52.91667824
Epoch Year2020
RAAN119.5284
Inclination52.9972
Eccentricity0.000141
Argument of Perigee43.7446
Mean Anonmoly92.22
Mean Motion15.73196486
Decay Rate-2.156E-05
L11 45101U 20006BK 20052.91667824 -.00002156 00000-0 -10942-4 0 9997
L22 45101 52.9972 119.5284 0001410 43.7446 92.2200 15.73196486 1771

Live tracking and technical data element details for STARLINK-1194 (NORAD 45101). STARLINK-1194 can be tracked NOW for your location showing map with azimuth and elevation plus other details from your city location.

Track the satellite on the map from your city or location and see movement details for azimuth, elevation, latitude, longitude, range, height, and movement on the map or in text.







IsCatalogInMostPopularTable: catalog: 45101, numindb: 7
Update: records affected: 1



GetName: 45101 STARLINK-1194

Hit Count: updated at: Mon, 24 Feb 2020 18:36:46 GMT